BTK6593 WARR-WIII

Flight info

Callsign BTK6593
Flight time N/A
Altitude 34000
Route LASEM T2 KALUT T6 KURUS
Aircraft B738/M-SDE2E3FGHIRWXY/LB1

Departure

Time 2026-05-04 06:50
Airport Juanda International Airport (WARR)

Arrival

Time N/A
Airport Soekarno-Hatta International Airport (WIII)
Time Latitude Longitude Altitude Speed Heading
2026-05-04 06:25 -7.37612 112.79592 10 ft 0 kts
2026-05-04 06:37 -7.37620 112.79591 8 ft 4 kts
2026-05-04 06:37 -7.37647 112.79586 8 ft 4 kts
2026-05-04 06:37 -7.37669 112.79583 8 ft 4 kts 12°
2026-05-04 06:38 -7.37690 112.79572 8 ft 4 kts 65°
2026-05-04 06:38 -7.37693 112.79547 8 ft 3 kts 98°
2026-05-04 06:40 -7.37693 112.79543 8 ft 0 kts 99°
2026-05-04 06:40 -7.37697 112.79570 8 ft 6 kts 99°
2026-05-04 06:41 -7.37705 112.79621 10 ft 9 kts 99°
2026-05-04 06:41 -7.37716 112.79685 8 ft 9 kts 99°
2026-05-04 06:41 -7.37725 112.79748 8 ft 9 kts 98°
2026-05-04 06:41 -7.37744 112.79806 9 ft 9 kts 141°
2026-05-04 06:42 -7.37815 112.79806 8 ft 14 kts 189°
2026-05-04 06:42 -7.37914 112.79789 8 ft 14 kts 189°
2026-05-04 06:42 -7.37975 112.79728 8 ft 14 kts 271°
2026-05-04 06:44 -7.37858 112.79003 8 ft 6 kts 277°
2026-05-04 06:44 -7.37849 112.78943 8 ft 14 kts 278°
2026-05-04 06:44 -7.37831 112.78828 8 ft 17 kts 279°
2026-05-04 06:45 -7.37808 112.78696 8 ft 22 kts 279°
2026-05-04 06:45 -7.37785 112.78543 8 ft 22 kts 279°
2026-05-04 06:45 -7.37761 112.78394 8 ft 21 kts 279°
2026-05-04 06:45 -7.37738 112.78249 8 ft 21 kts 279°
2026-05-04 06:46 -7.37715 112.78109 8 ft 20 kts 279°
2026-05-04 06:46 -7.37691 112.77964 8 ft 22 kts 279°
2026-05-04 06:46 -7.37667 112.77814 9 ft 21 kts 279°
2026-05-04 06:46 -7.37644 112.77669 8 ft 21 kts 279°
2026-05-04 06:48 -7.37832 112.77755 8 ft 82 kts 99°
2026-05-04 06:48 -7.37962 112.78551 8 ft 146 kts 99°
2026-05-04 06:49 -7.38138 112.79700 312 ft 173 kts 98°
2026-05-04 06:50 -7.37874 112.89570 3792 ft 279 kts 35°
2026-05-04 06:51 -7.36051 112.90182 4607 ft 283 kts
2026-05-04 06:51 -7.34145 112.89743 5508 ft 280 kts 341°
2026-05-04 06:51 -7.32294 112.89214 6480 ft 275 kts 349°
2026-05-04 06:51 -7.30389 112.88910 7184 ft 281 kts 354°
2026-05-04 06:52 -7.28418 112.88686 7778 ft 290 kts 354°
2026-05-04 06:52 -7.26409 112.88468 8301 ft 299 kts 355°
2026-05-04 06:52 -7.24343 112.88293 9127 ft 297 kts 356°
2026-05-04 06:52 -7.22279 112.88136 9861 ft 299 kts 356°
2026-05-04 06:53 -7.20181 112.87975 10399 ft 309 kts 356°
2026-05-04 06:53 -7.17959 112.87803 10554 ft 331 kts 356°
2026-05-04 06:53 -7.15619 112.87433 10737 ft 350 kts 340°
2026-05-04 06:53 -7.13537 112.86139 11194 ft 358 kts 315°
2026-05-04 06:54 -7.12164 112.84061 11825 ft 360 kts 291°
2026-05-04 06:54 -7.11562 112.81615 12518 ft 361 kts 280°
2026-05-04 06:54 -7.11130 112.79107 13122 ft 366 kts 279°
2026-05-04 06:54 -7.10717 112.76561 13686 ft 371 kts 279°
2026-05-04 06:55 -7.10293 112.73986 14304 ft 374 kts 279°
2026-05-04 06:55 -7.09851 112.71393 14904 ft 378 kts 280°
2026-05-04 06:55 -7.09392 112.68773 15497 ft 382 kts 280°
2026-05-04 06:55 -7.08921 112.66129 16087 ft 385 kts 280°
2026-05-04 06:56 -7.08444 112.63461 16620 ft 389 kts 280°
2026-05-04 06:57 -7.04971 112.44145 20213 ft 411 kts 280°
2026-05-04 06:58 -7.04459 112.41300 20672 ft 414 kts 280°
2026-05-04 06:58 -7.03945 112.38437 21105 ft 417 kts 280°
2026-05-04 06:58 -7.03424 112.35550 21525 ft 421 kts 280°
2026-05-04 06:58 -7.02900 112.32648 21938 ft 423 kts 280°
2026-05-04 06:59 -7.02366 112.29727 22345 ft 426 kts 282°
2026-05-04 06:59 -7.01516 112.26907 22702 ft 428 kts 292°
2026-05-04 06:59 -7.00356 112.24135 23091 ft 430 kts 294°
2026-05-04 06:59 -6.99162 112.21368 23465 ft 433 kts 293°
2026-05-04 07:01 -6.88806 112.02549 25745 ft 449 kts 304°
2026-05-04 07:01 -6.87048 111.99941 26044 ft 451 kts 304°
2026-05-04 07:02 -6.85299 111.97312 26344 ft 453 kts 304°
2026-05-04 07:02 -6.83553 111.94660 26623 ft 455 kts 304°
2026-05-04 07:02 -6.81806 111.91994 26915 ft 457 kts 304°
2026-05-04 07:02 -6.80053 111.89315 27202 ft 459 kts 304°
2026-05-04 07:03 -6.78297 111.86628 27468 ft 461 kts 304°
2026-05-04 07:03 -6.76532 111.83929 27737 ft 463 kts 304°
2026-05-04 07:03 -6.74758 111.81221 27990 ft 465 kts 304°
2026-05-04 07:03 -6.72975 111.78500 28246 ft 466 kts 304°
2026-05-04 07:04 -6.71188 111.75772 28485 ft 468 kts 304°
2026-05-04 07:04 -6.69393 111.73034 28729 ft 470 kts 304°
2026-05-04 07:04 -6.67592 111.70285 28968 ft 472 kts 304°
2026-05-04 07:04 -6.65784 111.67526 29200 ft 473 kts 304°
2026-05-04 07:05 -6.63969 111.64760 29435 ft 474 kts 304°
2026-05-04 07:05 -6.62148 111.61984 29652 ft 476 kts 304°
2026-05-04 07:05 -6.60415 111.59139 29858 ft 478 kts 300°
2026-05-04 07:05 -6.58847 111.56190 30063 ft 480 kts 297°
2026-05-04 07:06 -6.55856 111.50182 30651 ft 478 kts 297°
2026-05-04 07:06 -6.54368 111.47207 31084 ft 474 kts 297°
2026-05-04 07:06 -6.52872 111.44259 31390 ft 473 kts 298°
2026-05-04 07:07 -6.51357 111.41316 31649 ft 474 kts 298°
2026-05-04 07:08 -6.40789 111.21006 33844 ft 464 kts 298°
2026-05-04 07:09 -6.39308 111.18158 33821 ft 467 kts 298°
2026-05-04 07:09 -6.36310 111.12395 33827 ft 464 kts 298°
2026-05-04 07:10 -6.33293 111.06694 33836 ft 461 kts 299°
2026-05-04 07:12 -6.21122 110.84099 33835 ft 461 kts 299°
2026-05-04 07:12 -6.18073 110.78439 33837 ft 461 kts 299°
2026-05-04 07:13 -6.15019 110.72760 33846 ft 463 kts 299°
2026-05-04 07:13 -6.11958 110.67053 33834 ft 465 kts 299°
2026-05-04 07:14 -6.04253 110.52732 33834 ft 467 kts 299°
2026-05-04 07:15 -6.01161 110.46988 33831 ft 467 kts 299°
2026-05-04 07:15 -5.98124 110.41217 33825 ft 468 kts 294°
2026-05-04 07:16 -5.96473 110.34908 33834 ft 469 kts 276°
2026-05-04 07:16 -5.96370 110.28357 33831 ft 470 kts 270°
2026-05-04 07:17 -5.96449 110.21800 33828 ft 469 kts 270°